Preview of NWS' New Version of Forecast
This preview is not operational and should not be used for support decisions.

Regional Weather Roundup (RWR)

Issued by National Weather Service (NWS)

                            
000
ASUS45 KBOI 182010
RWRID 

IDAHO REGIONAL WEATHER ROUNDUP
NATIONAL WEATHER SERVICE BOISE ID
200 PM MDT TUE JUN 18 2019

NOTE: "FAIR" INDICATES FEW OR NO CLOUDS BELOW 12000 FEET
WITH NO SIGNIFICANT WEATHER AND/OR OBSTRUCTIONS TO VISIBILITY

IDZ012-014-182100-
SOUTHWEST IDAHO

  
CITY           SKY/WX    TMP DP  RH WIND       PRES   REMARKS
BOISE          SUNNY     83  47  28 W15G24    30.02F                  
CALDWELL       SUNNY     83  48  29 W13       30.01F                  
MOUNTAIN HOME  SUNNY     84  38  18 NW10G23   30.01F                  
$$

IDZ016-017-182100-
SOUTHCENTRAL IDAHO

  
CITY           SKY/WX    TMP DP  RH WIND       PRES   REMARKS
BURLEY         SUNNY     78  45  30 W14G21    30.05F                  
JEROME         SUNNY     80  46  30 W13G25    30.06F                  
TWIN FALLS     SUNNY     80  44  27 NW16G23   30.07F                  
$$

IDZ019>023-182100-
SOUTHEAST IDAHO

  
CITY           SKY/WX    TMP DP  RH WIND       PRES   REMARKS
IDAHO FALLS    SUNNY     76  47  35 S12       30.07F                  
POCATELLO      MOSUNNY   79  46  31 W18       30.07F                  
REXBURG        MOSUNNY   75  47  36 S8G17     30.06F                  
$$

IDZ006-010-011-018-031-032-182100-
CENTRAL IDAHO MOUNTAINS

  
CITY           SKY/WX    TMP DP  RH WIND       PRES   REMARKS
MCCALL         MOSUNNY   74  42  31 W10G20    30.09F                  
HAILEY         MOSUNNY   73  48  40 SW12      30.11F                  
STANLEY          N/A     72  37  28 W9        30.15S                  
SALMON         PTSUNNY   75  49  39 SW5       30.02F                  
CHALLIS        PTSUNNY   80  45  28 NE5       30.03F                  
$$

IDZ002-004-006-007-026-182100-
NORTHERN IDAHO

  
CITY           SKY/WX    TMP DP  RH WIND       PRES   REMARKS
LEWISTON       MOSUNNY   83  45  26 NW15G23   30.00S                  
LOWELL           N/A     81  51  35 VRB3      29.97F                  
COEUR D'ALENE  MOSUNNY   78  49  35 W8        30.01F                  
MULLAN PASS    CLOUDY    58  45  62 VRB3        N/A                   
$$